Tracking 22842 objects as of 15-Apr-2021
HD Live streaming from Space Station
objects crossing your sky now

COSMOS 2209

Track COSMOS 2209 now!
COSMOS 2209 is classified as:


NORAD ID: 22112
Int'l Code: 1992-059A
Perigee: 35,747.7 km
Apogee: 35,830.2 km
Inclination: 14.8 °
Period: 1,435.9 minutes
Semi major axis: 42159 km
RCS: 5.0119 m2 (large)
Launch date: September 10, 1992
Source: Commonwealth of Independent States (former USSR) (CIS)
Launch site: TYURATAM MISSILE AND SPACE COMPLEX (TTMTR)
aabbcc
Your satellite tracking list
Your tracking list is empty




NASA's NSSDC Master Catalog

Two Line Element Set (TLE):
1 22112U 92059A   21104.02597160 -.00000211  00000-0  00000-0 0  9996
2 22112  14.7807 357.5365 0009781 324.9850 223.5481  1.00288956104668
Source of the keplerian elements: AFSPC